DECAYED

STARLINK-30419, 57845 (Decayed)

Orbit data source: Space-Track

STARLINK-30419, 57845 was a payload satellite owned by SpaceX/Seattle (US) in LEO that was launched on Tue, 12 Sep 2023 UTC via an FALCON 9 launch vehicle from the Air Force Western Test Range (AFWTR). Payload-class satellites include a variety of spacecraft equipped with specific instruments for various scientific and technological missions. These include communications satellites like Starlink; space stations such as the ISS; scientific satellites like the Hubble; Earth observation satellites from companies like Planet Labs, Umbra, and HawkEye 360; GPS; miniature CubeSats for education and research; and military/defense satellites.

Not visible in the next 10 days
Identifier
57845, 2023-141F
Orbit
Decayed
Country
Flag of USUS
Related business
Manufacturer
SpaceX/Seattle
Mission
Decayed Commercial Communications
Bus & Motor
STARLINK V2M, Unknown motor
Mass
730 kg wet, ~700 kg dry
Launch date (UTC)
2023-09-12 (3 years ago)
Launch vehicle
FALCON 9
Launch site
Air Force Western Test Range (AFWTR)
Object type
Payload
Rocket body
Debris
Shape & HBR
Box + 2 Pan, 17.7 m
Radar Cross Section
33.884 m², Large (>1 m²)

Expand to show TLE details & history
Last TLE update: 1 year ago

TLE from 1 year ago
0 STARLINK-30419
1 57845U 23141F   25057.58612353  .48244651  12339-4  52834-2 0  9992
2 57845  53.1458 191.8732 0005893 336.2966 127.7560 16.36466080 83322
Epoch: 2025-02-26T14:04Z
TLE epoch observation values (Epoch: 2025-02-26T14:04:01.072Z)
Latitude
51.05542°
Longitude
-63.04734°
Altitude
183.598 km
Speed
7.801 km/s
True Right ascension
20h 18m 31s
True Declination
50° 52' 21"
Sunlit
Object was in daylight at epoch
Visualization orbit readout
Latitude
Unknown
Longitude
Unknown
Altitude
Unknown
Speed
Unknown
Apparent Right ascension
Unknown
Apparent Declination
Unknown
Sunlit
N/A
Visualization observer readout
Local Sidereal Time
21:31:57
Azimuth
Unknown
Elevation
Unknown
Doppler factor
Unknown
Orbital elements
Apogee altitude
179.352 km
Perigee altitude
171.628 km
Semi-major axis
6,553.627 km
Eccentricity
0.00059
Inclination
53.1458°
RAAN
191.8732°
Arg. of periapsis
336.2966°
True anomaly
127.80937°
Mean anomaly
127.756°
Eccentric anomaly
127.78269°
Mean motion
4.09092 °/min
Orbital period
88 mins
BSTAR
0.0052834
Loading maneuver chart data...
Computing Atmospheric mass density...
Loading historical data...
Loading historical data...
Loading historical data...
Loading historical data...
Loading historical data...
Loading historical data...
Loading historical data...

Documentation

Showing up to 5 results
|